Cairo, IL

4:14 AM CST on December 09, 2019 (GMT -0600)
Cairo Regional

Weather History for KCIR - October, 2019

Change the Weather History Date:

Wednesday, October 16, 2019

  Actual Average Record
Temperature  
Mean Temperature 52 °F -  
Max Temperature 59 °F 68 °F 87 °F (2011)
Min Temperature 41 °F 50 °F 37 °F (2005)
Degree Days  
Heating Degree Days 14    
Growing Degree Days 2 (Base 50)    
Moisture  
Dew Point 40 °F    
Average Humidity 68    
Maximum Humidity 97    
Minimum Humidity 51    
Precipitation  
Precipitation 0.00 in - - ()
Sea Level Pressure  
Sea Level Pressure 30.05 in    
Wind  
Wind Speed 9 mph ()    
Max Wind Speed 21 mph    
Max Gust Speed 29 mph    
Visibility 9.9 miles    
Events      
Averages and records for this station are not official NWS values.
T = Trace of Precipitation, MM = Missing Value Source: Averaged Metar Reports

Daily Weather History Graph

Daily Weather History Graph

Search for Another Location

Airport or City:

Astronomy

Oct. 16, 2019 Rise Set
Actual Time 7:05 AM CDT 6:18 PM CDT
Civil Twilight 6:39 AM CDT 6:45 PM CDT
Nautical Twilight 6:08 AM CDT 7:15 PM CDT
Astronomical Twilight 5:38 AM CDT 7:45 PM CDT
Moon 8:15 PM CDT (10/16) 9:33 AM CDT (10/16)
Length of Visible Light 12h 06m
Length of Day
11h 13m
Waning Gibbous, 92% of the Moon is Illuminated
Oct 16
Waning Gibbous
Oct 21
Last Quarter
Oct 27
New
Nov 4
First Quarter
Nov 12
Full

Hourly Weather History & Observations

Time (CDT) Temp. Windchill Dew Point Humidity Pressure Visibility Wind Dir Wind Speed Gust Speed Precip Events Conditions
12:15 AM 62.8 °F - 58.8 °F 87% 29.87 in 10.0 mi NNW 9.2 mph - N/A   Overcast
12:35 AM 61.2 °F - 52.7 °F 74% 29.89 in 10.0 mi NNW 19.6 mph 26.5 mph N/A   Overcast
12:55 AM 59.4 °F - 46.8 °F 63% 29.90 in 10.0 mi NNW 20.7 mph 27.6 mph N/A   Overcast
1:15 AM 58.8 °F - 45.7 °F 62% 29.91 in 10.0 mi NNW 12.7 mph 19.6 mph N/A   Overcast
1:35 AM 58.1 °F - 45.1 °F 62% 29.92 in 10.0 mi NW 15.0 mph 19.6 mph N/A   Overcast
1:55 AM 57.7 °F - 45.0 °F 62% 29.94 in 10.0 mi North 16.1 mph 24.2 mph N/A   Overcast
2:15 AM 56.1 °F - 41.4 °F 58% 29.95 in 10.0 mi North 17.3 mph 28.8 mph N/A   Overcast
2:35 AM 54.7 °F - 40.5 °F 59% 29.96 in 10.0 mi North 15.0 mph 23.0 mph N/A   Mostly Cloudy
2:55 AM 53.4 °F - 40.8 °F 62% 29.96 in 10.0 mi NNW 13.8 mph 18.4 mph N/A   Mostly Cloudy
3:15 AM 52.2 °F - 40.1 °F 64% 29.97 in 10.0 mi NNW 10.4 mph - N/A   Scattered Clouds
3:35 AM 51.4 °F - 38.7 °F 62% 29.96 in 10.0 mi NNW 11.5 mph 20.7 mph N/A   Clear
3:55 AM 50.0 °F - 39.0 °F 66% 29.96 in 10.0 mi NNW 8.1 mph - N/A   Clear
4:15 AM 49.5 °F - 37.9 °F 65% 29.97 in 10.0 mi NNW 13.8 mph 19.6 mph N/A   Clear
4:35 AM 48.6 °F - 37.6 °F 66% 29.99 in 10.0 mi NNW 12.7 mph 17.3 mph N/A   Clear
4:55 AM 48.4 °F - 37.4 °F 66% 29.99 in 10.0 mi NW 10.4 mph - N/A   Clear
5:15 AM 47.7 °F - 37.2 °F 67% 30.00 in 10.0 mi NNW 9.2 mph - N/A   Clear
5:35 AM 46.6 °F - 37.4 °F 70% 30.00 in 10.0 mi NNW 8.1 mph - N/A   Clear
5:55 AM 45.7 °F 42.7 °F 37.6 °F 73% 30.01 in 10.0 mi NNW 5.8 mph - N/A   Clear
6:15 AM 45.3 °F - 37.4 °F 74% 30.02 in 10.0 mi Calm Calm - N/A   Clear
6:35 AM 44.8 °F - 37.6 °F 76% 30.02 in 10.0 mi Calm Calm - N/A   Clear
6:55 AM 44.2 °F 41.8 °F 37.4 °F 77% 30.03 in 10.0 mi NW 4.6 mph - N/A   Clear
7:15 AM 43.7 °F - 37.6 °F 79% 30.03 in 10.0 mi Calm Calm - N/A   Clear
7:35 AM 44.2 °F 41.8 °F 37.8 °F 78% 30.04 in 10.0 mi WNW 4.6 mph - N/A   Clear
7:55 AM 45.3 °F 42.3 °F 37.6 °F 74% 30.05 in 10.0 mi NW 5.8 mph - N/A   Clear
8:15 AM 46.4 °F 42.4 °F 37.9 °F 72% 30.06 in 10.0 mi NW 8.1 mph - N/A   Clear
8:35 AM 47.3 °F - 37.9 °F 70% 30.07 in 10.0 mi NW 9.2 mph 16.1 mph N/A   Clear
8:55 AM 48.2 °F - 38.3 °F 69% 30.07 in 10.0 mi NNW 10.4 mph - N/A   Clear
9:15 AM 49.3 °F - 39.2 °F 68% 30.08 in 10.0 mi NNW 9.2 mph - N/A   Clear
9:35 AM 49.8 °F - 39.2 °F 67% 30.09 in 10.0 mi NNW 13.8 mph 19.6 mph N/A   Clear
9:55 AM 50.4 °F - 39.2 °F 66% 30.09 in 10.0 mi NNW 16.1 mph 19.6 mph N/A   Clear
10:15 AM 51.3 °F - 39.7 °F 65% 30.08 in 10.0 mi NNW 10.4 mph - N/A   Clear
10:35 AM 52.9 °F - 40.5 °F 63% 30.08 in 10.0 mi NNW 11.5 mph - N/A   Clear
10:55 AM 53.1 °F - 39.7 °F 61% 30.08 in 10.0 mi NNW 10.4 mph 16.1 mph N/A   Clear
11:15 AM 54.1 °F - 40.1 °F 59% 30.08 in 10.0 mi North 9.2 mph - N/A   Clear
11:35 AM 55.0 °F - 39.9 °F 57% 30.08 in 10.0 mi NNW 10.4 mph - N/A   Clear
11:55 AM 55.4 °F - 40.3 °F 57% 30.08 in 10.0 mi NW 3.5 mph - N/A   Scattered Clouds
12:15 PM 56.1 °F - 41.2 °F 57% 30.07 in 10.0 mi NW 12.7 mph - N/A   Scattered Clouds
12:35 PM 56.7 °F - 40.6 °F 55% 30.07 in 10.0 mi NW 11.5 mph 17.3 mph N/A   Scattered Clouds
12:55 PM 57.0 °F - 40.3 °F 54% 30.07 in 10.0 mi NW 13.8 mph 19.6 mph N/A   Scattered Clouds
1:15 PM 58.1 °F - 41.9 °F 55% 30.07 in 10.0 mi NNW 13.8 mph - N/A   Clear
1:35 PM 58.1 °F - 41.0 °F 53% 30.07 in 10.0 mi WNW 6.9 mph - N/A   Scattered Clouds
1:55 PM 57.9 °F - 41.4 °F 54% 30.07 in 10.0 mi NNW 9.2 mph - N/A   Scattered Clouds
2:15 PM 59.0 °F - 41.0 °F 51% 30.06 in 10.0 mi NNW 11.5 mph 17.3 mph N/A   Mostly Cloudy
2:35 PM 59.7 °F - 42.1 °F 52% 30.07 in 10.0 mi WNW 12.7 mph 17.3 mph N/A   Mostly Cloudy
2:55 PM 58.6 °F - 41.4 °F 53% 30.07 in 10.0 mi NNW 10.4 mph 17.3 mph N/A   Scattered Clouds
3:15 PM 58.5 °F - 40.5 °F 51% 30.07 in 10.0 mi NW 10.4 mph - N/A   Clear
3:35 PM 58.8 °F - 40.6 °F 51% 30.07 in 10.0 mi NNW 9.2 mph - N/A   Clear
3:55 PM 58.3 °F - 41.0 °F 53% 30.08 in 10.0 mi NNW 11.5 mph - N/A   Scattered Clouds
4:15 PM 57.7 °F - 40.6 °F 53% 30.08 in 10.0 mi NNW 9.2 mph - N/A   Clear
4:35 PM 56.8 °F - 39.7 °F 53% 30.08 in 7.0 mi NNW 12.7 mph - N/A   Clear
4:55 PM 55.8 °F - 38.8 °F 53% 30.08 in 7.0 mi North 13.8 mph - N/A   Clear
5:15 PM 55.4 °F - 39.0 °F 54% 30.08 in 10.0 mi North 11.5 mph - N/A   Clear
5:35 PM 54.5 °F - 39.7 °F 57% 30.09 in 10.0 mi NNW 11.5 mph - N/A   Clear
5:55 PM 53.1 °F - 39.9 °F 61% 30.09 in 10.0 mi NNW 8.1 mph - N/A   Clear
6:35 PM 50.4 °F - 39.6 °F 66% 30.09 in 10.0 mi Calm Calm - N/A   Clear
6:55 PM 48.9 °F - 40.3 °F 72% 30.10 in 10.0 mi Calm Calm - N/A   Clear
7:15 PM 47.7 °F - 40.3 °F 76% 30.11 in 10.0 mi Calm Calm - N/A   Clear
7:35 PM 48.2 °F - 39.4 °F 72% 30.11 in 10.0 mi Calm Calm - N/A   Clear
7:55 PM 47.5 °F - 39.6 °F 74% 30.11 in 10.0 mi Calm Calm - N/A   Clear
8:15 PM 47.3 °F - 39.6 °F 74% 30.10 in 10.0 mi Calm Calm - N/A   Clear
8:35 PM 46.4 °F - 39.6 °F 77% 30.09 in 10.0 mi Calm Calm - N/A   Clear
8:55 PM 45.5 °F - 39.6 °F 80% 30.09 in 10.0 mi Calm Calm - N/A   Clear
9:15 PM 44.6 °F - 39.6 °F 82% 30.09 in 10.0 mi Calm Calm - N/A   Clear
9:35 PM 44.2 °F - 39.4 °F 83% 30.09 in 10.0 mi Calm Calm - N/A   Clear
9:55 PM 42.1 °F - 40.1 °F 93% 30.10 in 10.0 mi Calm Calm - N/A   Clear
10:15 PM 42.8 °F - 40.3 °F 91% 30.10 in 10.0 mi Calm Calm - N/A   Clear
10:35 PM 41.0 °F - 40.1 °F 97% 30.10 in 10.0 mi Calm Calm - N/A   Clear
10:55 PM 41.2 °F - 40.5 °F 97% 30.10 in 10.0 mi Calm Calm - N/A   Clear
11:15 PM 42.1 °F - 39.2 °F 90% 30.10 in 10.0 mi Calm Calm - N/A   Clear
11:35 PM 41.2 °F - 39.0 °F 92% 30.10 in 10.0 mi Calm Calm - N/A   Clear
11:55 PM 42.1 °F - 39.4 °F 90% 30.10 in 10.0 mi Calm Calm - N/A   Clear